Flag for U.S.A. Weather past 2 weeks in Sunnyvale, California, U.S.A.

Now
45 °F

Clear.


Feels Like: 44 °F
Forecast: 39 / 53 °F
Wind: 3 mph from West

Location: Moffett Field

Current Time: Dec 26, 2014 at 4:30:47 AM

Latest Report: Dec 26, 2014 at 3:56 AM


Visibility: 10 mi

Pressure: 30.14 "Hg

Humidity: 68%

Dew point: 35 °F

Location of SunnyvaleLocation

Historic Weather in Sunnyvale — Graph

°F

Sunnyvale temperature yesterday

Maximum temperature yesterday: 57 °F (at 2:56 PM)
Minimum temperature yesterday: 45 °F (at 4:56 AM)
Average temperature yesterday: 50 °F

Past Weeks' High & Low Weather Summary

 TemperatureHumidityPressure
High69 °F (Dec 23, 2:56 PM)100% (Dec 11, 3:04 PM)30.34 "Hg (Dec 11, 3:04 PM)
Low43 °F (Dec 13, 6:56 AM)41% (Dec 25, 3:56 PM)29.57 "Hg (Dec 11, 7:56 AM)
Average55 °F82%30.07 "Hg
* Reported Dec 11 2:56 AM — Dec 26 2:56 AM, Sunnyvale, Weather by CustomWeather, © 2014

Note: Actual official high and low records may vary slightly from our data, if they occured in-between our weather recording intervals... More about our weather records

Advertising

Sunnyvale weather history for previous 24 hours

 ConditionsComfort  
Time TempWeatherWind HumidityBarometerVisibility
2:56 AM
Dec 26
45 °FClear.No wind74%30.13 "Hg10 mi
1:56 AM45 °FClear.3 mph74%30.13 "Hg10 mi
12:56 AM47 °FClear.3 mph71%30.12 "Hg10 mi
11:56 PM
Dec 25
48 °FClear.7 mph71%30.12 "Hg10 mi
10:56 PM49 °FClear.7 mph66%30.13 "Hg10 mi
9:56 PM49 °FClear.No wind71%30.13 "Hg10 mi
8:56 PM51 °FClear.9 mph63%30.12 "Hg10 mi
7:56 PM50 °FClear.3 mph54%30.12 "Hg10 mi
6:56 PM52 °FClear.3 mph57%30.11 "Hg10 mi
5:56 PM53 °FClear.3 mph51%30.09 "Hg10 mi
4:56 PM54 °FClear.10 mph49%30.07 "Hg10 mi
3:56 PM57 °FSunny.14 mph41%30.07 "Hg10 mi
2:56 PM57 °FSunny.12 mph42%30.07 "Hg10 mi
1:56 PM56 °FSunny.16 mph46%30.07 "Hg10 mi
12:56 PM56 °FSunny.12 mph47%30.09 "Hg10 mi
11:56 AM55 °FSunny.8 mph47%30.11 "Hg10 mi
10:56 AM52 °FSunny.10 mph55%30.14 "Hg10 mi
9:56 AM50 °FSunny.13 mph68%30.17 "Hg10 mi
8:56 AM48 °FSunny.9 mph66%30.16 "Hg10 mi
7:56 AM46 °FSunny.7 mph73%30.14 "Hg10 mi
6:56 AM45 °FClear.6 mph71%30.13 "Hg10 mi
5:56 AM45 °FClear.5 mph71%30.12 "Hg10 mi
4:56 AM45 °FClear.6 mph68%30.11 "Hg10 mi
Weather by CustomWeather, © 2014

See weather overviewHow to use our weather pages